Regional Weather Roundup
Issued by NWS Huntsville, AL

Home | Current Version | Previous Version | Text Only | Print | Product List | Glossary On
Versions: 1 2 3 4 5 6 7 8 9 10 11 12 13 14 15 16 17 18 19 20 21 22 23 24 25 26 27 28 29 30 31 32 33 34 35 36 37 38 39 40 41 42 43 44 45 46 47 48 49 50
000
ASUS44 KHUN 290724
RWRHUN

WEATHER ROUNDUP FOR THE TENNESSEE VALLEY
NATIONAL WEATHER SERVICE HUNTSVILLE AL
200 AM CDT TUE JUL 29 2014

ALZ001>004-290800-
NORTHWEST ALABAMA

CITY           SKY/WX    TMP DP  RH WIND       PRES   REMARKS
SHOALS AIRPORT CLEAR     69  62  78 N5        30.04F
SHOALS TVA RES   N/A     68 N/A N/A MISG        N/A
$$

ALZ005>007-016-290800-
NORTH CENTRAL ALABAMA

CITY           SKY/WX    TMP DP  RH WIND       PRES   REMARKS
DECATUR AP     CLOUDY    67  64  90 N5        30.03S
HUNTSVILLE AP  PTCLDY    69  62  78 N6        30.02F
HUN NWS/UAH      N/A     70  58  64 VRB6        N/A
MERIDIANVILLE  CLEAR     61  57  88 CALM      30.03F
VINEMONT AP      N/A     63  61  94 CALM      30.05S
$$

ALZ008>010-290800-
NORTHEAST ALABAMA

CITY           SKY/WX    TMP DP  RH WIND       PRES   REMARKS
ALBERTVILLE    CLEAR     68  64  88 NW3       30.01S
CROSSVILLE       N/A     63 N/A N/A CALM        N/A
FORT PAYNE     CLEAR     61  59  94 CALM      30.00F
SCOTTSBORO AP  CLEAR     64  63  94 CALM      30.01F
SCOTTSBORO HCN   N/A     63 N/A N/A MISG        N/A
VALLEY HEAD      N/A     61 N/A N/A MISG        N/A
$$

TNZ076-096-097-290800-
SOUTHEASTERN MIDDLE TENNESSEE

CITY           SKY/WX    TMP DP  RH WIND       PRES   REMARKS
FAYETTEVILLE   PTCLDY    64  57  77 N9        30.03F
TULLAHOMA      CLEAR     63  57  82 N6        30.04F
WINCHESTER     MOCLDY    64  61  88 CALM      30.04F
$$

...SURROUNDING SITES...

CITY           SKY/WX    TMP DP  RH WIND       PRES   REMARKS
ATLANTA        CLEAR     70  60  70 NW8       29.97F
ANNISTON       CLEAR     73  61  65 N6        29.99F
BIRMINGHAM     CLEAR     69  62  78 CALM      30.03S
CHATTANOOGA    CLEAR     69  59  70 CALM      30.00F
CORINTH        FAIR      66  63  88 NW3       30.04S
DALTON         CLEAR     63  63 100 CALM      29.98F
GADSDEN        CLEAR     66  61  82 NW6       29.99F
GOLDEN TRNGL   CLEAR     66  61  82 NW5       30.03S
HALEYVILLE     FAIR      63  63 100 CALM      30.06F
JACKSON TN     MOCLDY    67  61  81 N8        30.06F
LEWISBURG      FAIR      63  59  87 CALM      30.05S
MEMPHIS        MOCLDY    76  61  59 NE12      30.06R
MURFREESBORO   FAIR      66  58  75 CALM      30.04S
NASHVILLE      CLEAR     67  57  70 N3        30.05S
OXFORD MS      CLOUDY    66  64  94 CALM      30.07R
ROME           CLEAR     65  61  87 CALM      29.98F
SAVANNAH       CLEAR     64  64 100 N5        30.05S
TUPELO         CLEAR     69  64  84 CALM      30.03F
TUSCALOOSA     CLEAR     71  63  75 N5        30.01S
$$

...GULF COAST WEATHER...

CITY           SKY/WX    TMP DP  RH WIND       PRES   REMARKS
GULFPORT       PTCLDY    83  70  64 N9        29.98F
PASCAGOULA     CLEAR     77  72  84 N7        29.98S
MOBILE         MOCLDY    76  71  85 N8        30.00S
GULF SHORES      N/A     77  74  92 N6        29.95F
PENSACOLA      PTCLDY    77  75  93 N5        29.96R
DESTIN         PTCLDY    81  74  79 NW9       29.95S
PANAMA CITY    CLEAR     81  78  91 NW5       29.94F HX  90
APPALACHICOLA  PTCLDY    79  78  97 W7        29.93F
$$



USA.gov is the U.S. government's official web portal to all federal, state and local government web resources and services.